User: anonymous   Login
Location: Gälforsberget
(66.6500°N, 22.4167°E)
Time: 17:22:13
(UTC+00:00)
Language:

SJ 16-02 - Orbit

View from above orbital plane
View from above orbital plane
View from above satellite
View from above satellite

Ground track
Ground track

The orbit is defined by the following mean orbital elements,

1 41634U          26159.30181865 +.00000000 +00000-0 +18028-3 0 00008
2 41634  75.0037 295.7939 0007060  51.7874 308.3949 14.93550036    03
Epoch (UTC): 08 June 2026 07:14:37
Eccentricity: 0.0007060
inclination: 75.0037°
perigee height: 582 km
apogee height: 592 km
right ascension of ascending node: 295.7939°
argument of perigee: 51.7874°
revolutions per day: 14.93550036
mean anomaly at epoch: 308.3949°

The dashed part of the orbit path shows where the satellite is in the earth's shadow,  

DLR